Time,TemperatureF,DewpointF,PressureIn,WindDirection,WindDirectionDegrees,WindSpeedMPH,WindSpeedGustMPH,Humidity,HourlyPrecipIn,Conditions,Clouds,dailyrainin,SoftwareType,DateUTC
2013-06-18 00:02:00,65.0,57.0,-100.00,North,9,1.0,8.0,80,0.00,,,-99.99,,2013-06-18 04:02:00,
2013-06-18 00:12:00,65.0,59.0,-100.00,South,179,3.0,8.0,84,0.00,,,-99.99,,2013-06-18 04:12:00,
2013-06-18 00:23:00,67.0,57.0,-100.00,ESE,117,5.0,8.0,76,0.00,,,-99.99,,2013-06-18 04:23:00,
2013-06-18 00:34:00,65.0,57.0,-100.00,South,179,4.0,8.0,78,4.53,,,-99.99,,2013-06-18 04:34:00,
2013-06-18 00:43:00,61.0,57.0,-100.00,SSE,159,4.0,8.0,91,10.79,,,-99.99,,2013-06-18 04:43:00,
2013-06-18 00:53:00,61.0,59.0,-100.00,SE,135,2.0,8.0,94,-99.99,,,-99.99,,2013-06-18 04:53:00,
2013-06-18 01:02:00,60.0,57.0,-100.00,SE,144,1.0,8.0,97,6.22,,,-99.99,,2013-06-18 05:02:00,
2013-06-18 01:12:00,60.0,57.0,-100.00,South,189,1.0,8.0,97,10.79,,,-99.99,,2013-06-18 05:12:00,
2013-06-18 01:22:00,59.0,57.0,-100.00,South,182,2.0,8.0,97,4.53,,,-99.99,,2013-06-18 05:22:00,
2013-06-18 01:34:00,58.0,57.0,-100.00,SW,227,2.0,8.0,98,12.48,,,-99.99,,2013-06-18 05:34:00,
2013-06-18 01:43:00,58.0,55.0,-100.00,NNE,19,0.0,8.0,98,31.18,,,-99.99,,2013-06-18 05:43:00,
2013-06-18 01:53:00,59.0,57.0,-100.00,SE,144,0.0,8.0,98,23.23,,,-99.99,,2013-06-18 05:53:00,
2013-06-18 02:02:00,58.0,57.0,-100.00,WNW,282,1.0,8.0,98,2.83,,,-99.99,,2013-06-18 06:02:00,
2013-06-18 02:11:00,58.0,57.0,-100.00,West,264,4.0,8.0,98,24.96,,,-99.99,,2013-06-18 06:11:00,
2013-06-18 02:23:00,58.0,55.0,-100.00,SW,235,4.0,8.0,98,9.06,,,-99.99,,2013-06-18 06:23:00,
2013-06-18 02:32:00,57.0,55.0,-100.00,West,265,3.0,8.0,98,-99.99,,,-99.99,,2013-06-18 06:32:00,
2013-06-18 02:43:00,61.0,59.0,-100.00,SSE,159,1.0,8.0,100,0.00,,,-99.99,,2013-06-18 06:43:00,
2013-06-18 02:52:00,58.0,57.0,-100.00,NNW,334,1.0,8.0,98,0.00,,,-99.99,,2013-06-18 06:52:00,
2013-06-18 03:02:00,58.0,55.0,-100.00,WNW,282,0.0,8.0,98,0.00,,,-99.99,,2013-06-18 07:02:00,
2013-06-18 03:12:00,59.0,57.0,-100.00,SSE,166,0.0,8.0,99,0.00,,,-99.99,,2013-06-18 07:12:00,
2013-06-18 03:22:00,58.0,55.0,-100.00,SSE,166,0.0,8.0,98,-99.99,,,-99.99,,2013-06-18 07:22:00,
2013-06-18 03:33:00,58.0,55.0,-100.00,NNW,334,2.0,8.0,98,23.23,,,-99.99,,2013-06-18 07:33:00,
2013-06-18 03:43:00,58.0,55.0,-100.00,North,352,2.0,8.0,98,-99.99,,,-99.99,,2013-06-18 07:43:00,
2013-06-18 03:53:00,60.0,59.0,-100.00,SW,218,3.0,8.0,99,0.00,,,-99.99,,2013-06-18 07:53:00,
2013-06-18 04:02:00,57.0,55.0,-100.00,NNE,26,1.0,8.0,98,0.00,,,-99.99,,2013-06-18 08:02:00,
2013-06-18 04:11:00,57.0,55.0,-100.00,North,352,2.0,8.0,99,0.00,,,-99.99,,2013-06-18 08:11:00,
2013-06-18 04:23:00,58.0,55.0,-100.00,North,0,1.0,8.0,98,0.00,,,-99.99,,2013-06-18 08:23:00,
2013-06-18 04:33:00,58.0,55.0,-100.00,WNW,292,0.0,8.0,98,0.00,,,-99.99,,2013-06-18 08:33:00,
2013-06-18 04:43:00,56.0,54.0,-100.00,North,2,0.0,8.0,98,0.00,,,-99.99,,2013-06-18 08:43:00,
2013-06-18 04:52:00,59.0,57.0,-100.00,NE,49,0.0,8.0,98,0.00,,,-99.99,,2013-06-18 08:52:00,
2013-06-18 05:02:00,56.0,55.0,-100.00,North,5,0.0,8.0,98,0.00,,,-99.99,,2013-06-18 09:02:00,
2013-06-18 05:12:00,56.0,55.0,-100.00,North,8,0.0,8.0,99,0.00,,,-99.99,,2013-06-18 09:12:00,
2013-06-18 05:22:00,58.0,55.0,-100.00,NNE,32,0.0,8.0,98,0.00,,,-99.99,,2013-06-18 09:22:00,
2013-06-18 05:34:00,57.0,55.0,-100.00,East,80,0.0,8.0,99,0.00,,,-99.99,,2013-06-18 09:34:00,
2013-06-18 05:43:00,57.0,55.0,-100.00,ENE,64,0.0,8.0,99,0.00,,,-99.99,,2013-06-18 09:43:00,
2013-06-18 05:53:00,57.0,55.0,-100.00,ESE,105,0.0,8.0,99,0.00,,,-99.99,,2013-06-18 09:53:00,
2013-06-18 06:02:00,55.0,54.0,-100.00,WSW,238,2.0,8.0,99,0.00,,,-99.99,,2013-06-18 10:02:00,
2013-06-18 06:11:00,55.0,54.0,-100.00,WSW,237,0.0,8.0,98,0.00,,,-99.99,,2013-06-18 10:11:00,
2013-06-18 06:22:00,53.0,52.0,-100.00,WNW,285,0.0,8.0,98,0.00,,,-99.99,,2013-06-18 10:22:00,
2013-06-18 06:33:00,53.0,52.0,-100.00,ESE,110,0.0,8.0,99,0.00,,,-99.99,,2013-06-18 10:33:00,
2013-06-18 06:43:00,54.0,52.0,-100.00,North,1,0.0,8.0,98,0.00,,,-99.99,,2013-06-18 10:43:00,
2013-06-18 06:53:00,55.0,54.0,-100.00,NNW,327,0.0,8.0,98,0.00,,,-99.99,,2013-06-18 10:53:00,
2013-06-18 07:02:00,55.0,54.0,-100.00,SSW,200,0.0,8.0,98,0.00,,,-99.99,,2013-06-18 11:02:00,
2013-06-18 07:11:00,53.0,52.0,-100.00,NNW,331,0.0,8.0,98,0.00,,,-99.99,,2013-06-18 11:11:00,
2013-06-18 07:22:00,55.0,54.0,-100.00,NNW,347,1.0,8.0,98,0.00,,,-99.99,,2013-06-18 11:22:00,
2013-06-18 07:32:00,54.0,52.0,-100.00,South,177,0.0,8.0,98,0.00,,,-99.99,,2013-06-18 11:32:00,
2013-06-18 07:43:00,54.0,52.0,-100.00,South,177,1.0,8.0,98,0.00,,,-99.99,,2013-06-18 11:43:00,
2013-06-18 07:52:00,55.0,54.0,-100.00,South,175,0.0,8.0,99,0.00,,,-99.99,,2013-06-18 11:52:00,
2013-06-18 08:01:00,55.0,54.0,-100.00,ESE,121,0.0,8.0,98,0.00,,,-99.99,,2013-06-18 12:01:00,
2013-06-18 08:11:00,56.0,54.0,-100.00,SSE,151,0.0,8.0,98,0.00,,,-99.99,,2013-06-18 12:11:00,
2013-06-18 08:22:00,56.0,54.0,-100.00,South,175,0.0,8.0,99,0.00,,,-99.99,,2013-06-18 12:22:00,
2013-06-18 08:33:00,56.0,55.0,-100.00,SW,223,0.0,8.0,98,0.00,,,-99.99,,2013-06-18 12:33:00,
2013-06-18 08:43:00,57.0,55.0,-100.00,SW,232,1.0,8.0,99,0.00,,,-99.99,,2013-06-18 12:43:00,
2013-06-18 08:52:00,56.0,55.0,-100.00,WSW,242,1.0,8.0,98,0.00,,,-99.99,,2013-06-18 12:52:00,
2013-06-18 09:02:00,56.0,55.0,-100.00,WSW,242,1.0,8.0,98,0.00,,,-99.99,,2013-06-18 13:02:00,
2013-06-18 09:12:00,59.0,57.0,-100.00,West,264,1.0,8.0,98,0.00,,,-99.99,,2013-06-18 13:12:00,
2013-06-18 09:22:00,57.0,55.0,-100.00,WSW,245,1.0,8.0,97,0.00,,,-99.99,,2013-06-18 13:22:00,
2013-06-18 09:33:00,57.0,55.0,-100.00,WSW,245,2.0,8.0,95,0.00,,,-99.99,,2013-06-18 13:33:00,
2013-06-18 09:43:00,60.0,57.0,-100.00,South,189,2.0,8.0,93,0.00,,,-99.99,,2013-06-18 13:43:00,
2013-06-18 09:52:00,58.0,55.0,-100.00,SW,225,2.0,8.0,90,0.00,,,-99.99,,2013-06-18 13:52:00,
2013-06-18 10:02:00,60.0,55.0,-100.00,SW,230,2.0,8.0,91,0.00,,,-99.99,,2013-06-18 14:02:00,
2013-06-18 10:11:00,62.0,57.0,-100.00,SSW,208,2.0,8.0,88,0.00,,,-99.99,,2013-06-18 14:11:00,
2013-06-18 10:22:00,63.0,57.0,-100.00,SSW,192,2.0,8.0,86,0.00,,,-99.99,,2013-06-18 14:22:00,
2013-06-18 10:33:00,63.0,57.0,-100.00,South,179,1.0,8.0,88,0.00,,,-99.99,,2013-06-18 14:33:00,
2013-06-18 10:43:00,63.0,57.0,-100.00,WSW,248,2.0,8.0,86,0.00,,,-99.99,,2013-06-18 14:43:00,
2013-06-18 10:53:00,63.0,57.0,-100.00,SSW,213,2.0,8.0,86,0.00,,,-99.99,,2013-06-18 14:53:00,
2013-06-18 11:02:00,62.0,57.0,-100.00,SSW,208,3.0,8.0,85,0.00,,,-99.99,,2013-06-18 15:02:00,
2013-06-18 11:11:00,65.0,59.0,-100.00,SSW,192,3.0,8.0,85,0.00,,,-99.99,,2013-06-18 15:11:00,
2013-06-18 11:22:00,65.0,59.0,-100.00,SSW,203,4.0,8.0,81,0.00,,,-99.99,,2013-06-18 15:22:00,
2013-06-18 11:33:00,66.0,57.0,-100.00,SSW,207,3.0,8.0,78,0.00,,,-99.99,,2013-06-18 15:33:00,
2013-06-18 11:43:00,67.0,59.0,-100.00,South,175,3.0,8.0,77,0.00,,,-99.99,,2013-06-18 15:43:00,
2013-06-18 11:53:00,68.0,59.0,-100.00,WSW,245,2.0,8.0,76,0.00,,,-99.99,,2013-06-18 15:53:00,
2013-06-18 12:01:00,68.0,59.0,-100.00,WSW,242,4.0,8.0,75,0.00,,,-99.99,,2013-06-18 16:01:00,
2013-06-18 12:11:00,68.0,59.0,-100.00,South,186,4.0,8.0,76,0.00,,,-99.99,,2013-06-18 16:11:00,
2013-06-18 12:23:00,69.0,59.0,-100.00,WSW,244,4.0,8.0,73,0.00,,,-99.99,,2013-06-18 16:23:00,
2013-06-18 12:33:00,69.0,61.0,-100.00,WSW,249,4.0,8.0,76,0.00,,,-99.99,,2013-06-18 16:33:00,
2013-06-18 12:43:00,70.0,57.0,-100.00,WSW,242,6.0,8.0,69,0.00,,,-99.99,,2013-06-18 16:43:00,
2013-06-18 12:53:00,68.0,57.0,-100.00,WSW,258,6.0,8.0,71,0.00,,,-99.99,,2013-06-18 16:53:00,
2013-06-18 13:02:00,70.0,59.0,-100.00,SW,216,6.0,8.0,72,0.00,,,-99.99,,2013-06-18 17:02:00,
2013-06-18 13:12:00,70.0,59.0,-100.00,WSW,241,5.0,8.0,72,0.00,,,-99.99,,2013-06-18 17:12:00,
2013-06-18 13:22:00,69.0,59.0,-100.00,SSW,213,6.0,8.0,73,0.00,,,-99.99,,2013-06-18 17:22:00,
2013-06-18 13:33:00,70.0,59.0,-100.00,SW,217,6.0,8.0,73,0.00,,,-99.99,,2013-06-18 17:33:00,
2013-06-18 13:43:00,70.0,59.0,-100.00,SE,145,5.0,10.0,71,0.00,,,-99.99,,2013-06-18 17:43:00,
2013-06-18 13:53:00,69.0,57.0,-100.00,West,261,6.0,10.0,67,0.00,,,-99.99,,2013-06-18 17:53:00,
2013-06-18 14:02:00,71.0,61.0,-100.00,WSW,255,6.0,10.0,72,0.00,,,-99.99,,2013-06-18 18:02:00,
2013-06-18 14:12:00,70.0,57.0,-100.00,South,189,6.0,10.0,68,0.00,,,-99.99,,2013-06-18 18:12:00,
2013-06-18 14:22:00,70.0,57.0,-100.00,WSW,237,6.0,10.0,68,0.00,,,-99.99,,2013-06-18 18:22:00,
2013-06-18 14:33:00,71.0,59.0,-100.00,South,169,6.0,10.0,68,0.00,,,-99.99,,2013-06-18 18:33:00,
2013-06-18 14:42:00,70.0,57.0,-100.00,SSW,201,7.0,10.0,68,0.00,,,-99.99,,2013-06-18 18:42:00,
2013-06-18 14:53:00,69.0,57.0,-100.00,WSW,244,5.0,10.0,68,0.00,,,-99.99,,2013-06-18 18:53:00,
2013-06-18 15:02:00,71.0,61.0,-100.00,SW,232,5.0,10.0,71,0.00,,,-99.99,,2013-06-18 19:02:00,
2013-06-18 15:12:00,69.0,57.0,-100.00,West,265,6.0,10.0,69,0.00,,,-99.99,,2013-06-18 19:12:00,
2013-06-18 15:22:00,69.0,57.0,-100.00,WSW,252,6.0,10.0,68,0.00,,,-99.99,,2013-06-18 19:22:00,
2013-06-18 15:33:00,69.0,57.0,-100.00,WSW,252,6.0,10.0,68,0.00,,,-99.99,,2013-06-18 19:33:00,
2013-06-18 15:43:00,68.0,57.0,-100.00,West,265,7.0,10.0,69,0.00,,,-99.99,,2013-06-18 19:43:00,
2013-06-18 15:52:00,69.0,59.0,-100.00,WSW,256,7.0,10.0,71,0.00,,,-99.99,,2013-06-18 19:52:00,
2013-06-18 16:02:00,68.0,57.0,-100.00,West,262,7.0,10.0,71,0.00,,,-99.99,,2013-06-18 20:02:00,
2013-06-18 16:11:00,67.0,54.0,-100.00,SW,228,8.0,10.0,64,0.00,,,-99.99,,2013-06-18 20:11:00,
2013-06-18 16:23:00,68.0,55.0,-100.00,South,189,7.0,10.0,66,0.00,,,-99.99,,2013-06-18 20:23:00,
2013-06-18 16:33:00,68.0,55.0,-100.00,SSW,193,8.0,10.0,66,0.00,,,-99.99,,2013-06-18 20:33:00,
2013-06-18 16:43:00,68.0,55.0,-100.00,SW,216,7.0,10.0,67,0.00,,,-99.99,,2013-06-18 20:43:00,
2013-06-18 16:52:00,67.0,55.0,-100.00,South,169,10.0,14.0,67,0.00,,,-99.99,,2013-06-18 20:52:00,
2013-06-18 17:02:00,67.0,55.0,-100.00,SW,225,9.0,14.0,69,0.00,,,-99.99,,2013-06-18 21:02:00,
2013-06-18 17:12:00,67.0,55.0,-100.00,West,269,8.0,14.0,68,0.00,,,-99.99,,2013-06-18 21:12:00,
2013-06-18 17:23:00,65.0,54.0,-100.00,SSW,203,8.0,14.0,67,0.00,,,-99.99,,2013-06-18 21:23:00,
2013-06-18 17:33:00,67.0,54.0,-100.00,WSW,244,8.0,14.0,66,0.00,,,-99.99,,2013-06-18 21:33:00,
2013-06-18 17:43:00,66.0,54.0,-100.00,SW,232,7.0,8.0,66,0.00,,,-99.99,,2013-06-18 21:43:00,
2013-06-18 17:52:00,65.0,54.0,-100.00,South,177,7.0,10.0,66,0.00,,,-99.99,,2013-06-18 21:52:00,
2013-06-18 18:02:00,66.0,52.0,-100.00,SW,230,9.0,12.0,64,0.00,,,-99.99,,2013-06-18 22:02:00,
2013-06-18 18:11:00,66.0,52.0,-100.00,South,180,7.0,12.0,63,0.00,,,-99.99,,2013-06-18 22:11:00,
2013-06-18 18:22:00,65.0,52.0,-100.00,SW,214,8.0,12.0,63,0.00,,,-99.99,,2013-06-18 22:22:00,
2013-06-18 18:34:00,66.0,50.0,-100.00,WSW,241,7.0,12.0,60,0.00,,,-99.99,,2013-06-18 22:34:00,
2013-06-18 18:43:00,65.0,52.0,-100.00,SSW,197,8.0,12.0,63,0.00,,,-99.99,,2013-06-18 22:43:00,
2013-06-18 18:53:00,65.0,50.0,-100.00,WSW,242,9.0,12.0,60,0.00,,,-99.99,,2013-06-18 22:53:00,
2013-06-18 19:02:00,64.0,48.0,-100.00,SSW,213,9.0,12.0,60,0.00,,,-99.99,,2013-06-18 23:02:00,
2013-06-18 19:12:00,65.0,52.0,-100.00,SW,234,6.0,12.0,63,0.00,,,-99.99,,2013-06-18 23:12:00,
2013-06-18 19:23:00,64.0,48.0,-100.00,SW,214,6.0,12.0,60,0.00,,,-99.99,,2013-06-18 23:23:00,
2013-06-18 19:37:00,64.0,48.0,-100.00,SW,234,7.0,12.0,60,0.00,,,-99.99,,2013-06-18 23:37:00,
2013-06-18 19:47:00,64.0,50.0,-100.00,SW,235,6.0,12.0,62,0.00,,,-99.99,,2013-06-18 23:47:00,
2013-06-18 19:53:00,65.0,48.0,-100.00,SW,221,6.0,12.0,59,0.00,,,-99.99,,2013-06-18 23:53:00,
2013-06-18 20:02:00,64.0,48.0,-100.00,WNW,282,6.0,12.0,58,0.00,,,-99.99,,2013-06-19 00:02:00,
2013-06-18 20:12:00,66.0,48.0,-100.00,WSW,237,9.0,12.0,56,0.00,,,-99.99,,2013-06-19 00:12:00,
2013-06-18 20:22:00,62.0,45.0,-100.00,SW,216,7.0,12.0,56,0.00,,,-99.99,,2013-06-19 00:22:00,
2013-06-18 20:33:00,64.0,48.0,-100.00,WSW,241,6.0,12.0,58,0.00,,,-99.99,,2013-06-19 00:33:00,
2013-06-18 20:43:00,63.0,48.0,-100.00,West,265,4.0,12.0,59,0.00,,,-99.99,,2013-06-19 00:43:00,
2013-06-18 20:53:00,63.0,46.0,-100.00,WSW,249,5.0,12.0,56,0.00,,,-99.99,,2013-06-19 00:53:00,
2013-06-18 21:01:00,63.0,46.0,-100.00,WSW,242,4.0,12.0,59,0.00,,,-99.99,,2013-06-19 01:01:00,
2013-06-18 21:11:00,63.0,48.0,-100.00,SW,216,2.0,12.0,62,0.00,,,-99.99,,2013-06-19 01:11:00,
2013-06-18 21:22:00,62.0,46.0,-100.00,SW,234,2.0,12.0,59,0.00,,,-99.99,,2013-06-19 01:22:00,
2013-06-18 21:32:00,61.0,46.0,-100.00,SSW,203,1.0,12.0,60,0.00,,,-99.99,,2013-06-19 01:32:00,
2013-06-18 21:43:00,60.0,46.0,-100.00,SW,216,1.0,12.0,62,0.00,,,-99.99,,2013-06-19 01:43:00,
2013-06-18 21:53:00,60.0,46.0,-100.00,SW,231,1.0,12.0,63,0.00,,,-99.99,,2013-06-19 01:53:00,
2013-06-18 22:01:00,60.0,46.0,-100.00,SSW,197,1.0,12.0,63,0.00,,,-99.99,,2013-06-19 02:01:00,
2013-06-18 22:11:00,59.0,46.0,-100.00,SSW,208,1.0,12.0,63,0.00,,,-99.99,,2013-06-19 02:11:00,
2013-06-18 22:21:00,57.0,50.0,-100.00,WSW,245,0.0,12.0,78,0.00,,,-99.99,,2013-06-19 02:21:00,
2013-06-18 22:32:00,56.0,48.0,-100.00,WSW,240,0.0,12.0,77,0.00,,,-99.99,,2013-06-19 02:32:00,
2013-06-18 22:42:00,56.0,46.0,-100.00,SW,230,1.0,12.0,71,0.00,,,-99.99,,2013-06-19 02:42:00,
2013-06-18 22:52:00,58.0,46.0,-100.00,SW,227,2.0,12.0,69,0.00,,,-99.99,,2013-06-19 02:52:00,
2013-06-18 23:01:00,58.0,46.0,-100.00,SW,227,1.0,12.0,68,0.00,,,-99.99,,2013-06-19 03:01:00,
2013-06-18 23:11:00,58.0,46.0,-100.00,WSW,258,1.0,12.0,69,0.00,,,-99.99,,2013-06-19 03:11:00,
2013-06-18 23:22:00,58.0,46.0,-100.00,WSW,248,1.0,12.0,69,0.00,,,-99.99,,2013-06-19 03:22:00,
2013-06-18 23:33:00,58.0,46.0,-100.00,SW,234,0.0,12.0,69,0.00,,,-99.99,,2013-06-19 03:33:00,
2013-06-18 23:42:00,56.0,46.0,-100.00,SW,231,0.0,12.0,73,0.00,,,-99.99,,2013-06-19 03:42:00,
2013-06-18 23:52:00,56.0,48.0,-100.00,SW,220,0.0,12.0,76,0.00,,,-99.99,,2013-06-19 03:52:00,